This is the latest recevied weather packets stored in our database for station/object K4AMF. If no packets are shown the sender has not sent any weather packets the latest 10 day(s).
| Time | Temp. | Humidity | Pressure | Rain* | Wind** | Luminosity | Snow |
|---|---|---|---|---|---|---|---|
| 1777813842 | 15.56° C | 90% | 1020.4 hPa | 0 mm | - | 381 W/m² | - |
| 1777813539 | 15.56° C | 90% | 1020.1 hPa | 0 mm | - | 218 W/m² | - |
| 1777813238 | 15° C | 91% | 1020.1 hPa | 0 mm | - | 219 W/m² | - |
| 1777812935 | 15° C | 92% | 1020 hPa | 0 mm | - | 65 W/m² | - |
| 1777812632 | 15° C | 93% | 1020 hPa | 0 mm | - | 71 W/m² | - |
| 1777812328 | 15° C | 94% | 1020.1 hPa | 0 mm | - | 75 W/m² | - |
| 1777812027 | 14.44° C | 95% | 1019.8 hPa | 0 mm | - | 84 W/m² | - |
| 1777811725 | 14.44° C | 96% | 1020 hPa | 0 mm | - | 75 W/m² | - |
| 1777811421 | 14.44° C | 96% | 1020 hPa | 0 mm | - | 69 W/m² | - |
| 1777811118 | 14.44° C | 97% | 1019.8 hPa | 0 mm | - | 64 W/m² | - |
| 1777810815 | 13.89° C | 98% | 1019.9 hPa | 0 mm | - | 62 W/m² | - |
| 1777810512 | 13.89° C | 99% | 1019.6 hPa | 0 mm | - | 59 W/m² | - |
| 1777810208 | 13.89° C | 99% | 1019.7 hPa | 0 mm | - | 48 W/m² | - |
| 1777809905 | 13.89° C | 99% | 1019.6 hPa | 0 mm | - | 46 W/m² | - |
| 1777809603 | 13.89° C | 99% | 1019.6 hPa | 0 mm | - | 46 W/m² | - |
| 1777809300 | 13.89° C | 99% | 1019.6 hPa | 0 mm | - | 55 W/m² | - |
| 1777808998 | 13.33° C | 99% | 1019.7 hPa | 0 mm | - | 46 W/m² | - |
| 1777808695 | 13.33° C | 99% | 1019.8 hPa | 0 mm | - | 37 W/m² | - |
| 1777808391 | 13.33° C | 99% | 1019.8 hPa | 0 mm | - | 34 W/m² | - |
| 1777808090 | 13.33° C | 99% | 1019.6 hPa | 0 mm | - | 31 W/m² | - |
| 1777807787 | 13.33° C | 99% | 1019.5 hPa | 0 mm | - | 28 W/m² | - |
| 1777807485 | 13.33° C | 99% | 1019.5 hPa | 0 mm | - | 26 W/m² | - |
| 1777807186 | 13.33° C | 99% | 1019.5 hPa | 0 mm | - | 23 W/m² | - |
| 1777806883 | 13.33° C | 99% | 1019.4 hPa | 0 mm | - | 20 W/m² | - |
| 1777806579 | 12.78° C | 99% | 1019.3 hPa | 0 mm | - | 16 W/m² | - |
* Rain latest hour (hover to see other rain measurements)
** Current wind speed in m/s (hover to see current wind gust speed)